SCP
-0 -0 -0 -0 -0 -0 -0 -0 -0 -0 -0 -0 -0 -0 -0 -0 -0 -0 -0 -0 -0 -0 -0 -0 -0 -0 -0 0 -0 0 0 0 -0 -0 -0 -0 -0 -0 -0 0 0 0 0 -0 0 0 0
-0 -0 -0 -0 -0 -0 -0 -0 -0 -0 -0 -0 -0 -0 -0 -0 -0 -0 -0 -0 -0 -0 -0 -0 -0 -0 0 -0 0 0 0 -0 -0 0 -0 -0 -0 -0 -0 0 -0 -0 0 0 0 0 0
0 -0 -0 -0 -0 -0 -0 -0 -0 -0 -0 -0 -0 -0 -0 -0 -0 -0 -0 -0 -0 -0 -0 -0 0 0 -0 0 0 0 0 -0 0 -0 -0 -0 0 -0 -0 0 0 -0 0 -0 0 0 0
-0 -0 -0 -0 -0 -0 -0 -0 -0 -0 -0 -0 -0 -0 -0 -0 -0 -0 -0 -0 -0 -0 -0 0 0 0 0 0 -0 0 0 -0 0 0 0 0 0 -0 -0 0 -0 -0 0 -0 0 0 0
-0 -0 -0 -0 -0 -0 -0 -0 -0 -0 -0 -0 -0 -0 -0 -0 -0 -0 -0 -0 0 -0 0 0 0 0 -0 0 0 0 0 -0 0 0 0 -0 0 -0 -0 -0 -0 -0 0 0 0 0 0
-0 -0 -0 -0 -0 -0 -0 -0 -0 -0 -0 -0 -0 -0 -0 -0 -0 -0 -0 0 0 0 0 0 -0 -0 -0 -0 -0 -0 -0 0 -0 -0 -0 -0 -0 -0 -0 -0 0 -0 -0 0 0 0 -0
-0 -0 -0 -0 -0 -0 -0 -0 -0 -0 -0 -0 -0 -0 -0 -0 -0 -0 0 0 0 0 0 0 0 0 0 0 -0 -0 -0 -0 -0 -0 -0 -0 -0 -0 -0 -0 0 0 0 0 0 0 -0
-0 -0 -0 -0 -0 -0 -0 -0 -0 -0 -0 -0 -0 0 0 -0 0 0 0 -0 0 0 0 -0 0 0 0 0 0 -0 -0 -0 -0 -0 -0 0 -0 0 0 0 0 -0 0 0 0 0 0
-0 -0 -0 -0 -0 -0 -0 -0 -0 -0 -0 -0 -0 0 0 0 0 0 -0 0 0 0 0 0 0 -0 0 0 0 -0 -0 -0 -0 -0 -0 -0 -0 -0 0 0 -0 -0 0 0 0 0 -0
-0 -0 -0 -0 -0 -0 -0 -0 -0 -0 -0 -0 -0 -0 0 0 0 0 0 0 0 0 0 0 0 0 -0 0 -0 0 -0 0 -0 -0 0 0 0 0 0 0 0 -0 0 0 0 0 0
0 -0 -0 -0 -0 -0 -0 -0 -0 -0 -0 -0 -0 -0 -0 0 0 0 0 0 0 -0 0 0 0 0 0 0 0 -0 0 -0 0 0 0 0 0 -0 -0 0 -0 0 0 0 -0 -0 -0
0 -0 -0 -0 -0 -0 -0 -0 -0 -0 -0 -0 -0 -0 0 0 0 0 0 0 -0 0 0 0 0 0 0 0 0 0 0 -0 0 -0 0 0 0 0 -0 0 -0 0 0 0 -0 -0 -0
0 -0 -0 -0 -0 -0 -0 -0 -0 -0 -0 -0 -0 0 -0 0 0 0 -0 -0 0 0 0 0 0 0 0 0 0 0 0 0 0 0 0 0 0 0 0 -0 -0 0 -0 -0 -0 -0 0
0 -0 -0 -0 -0 -0 -0 -0 -0 -0 -0 -0 -0 -0 0 -0 0 0 -0 0 0 0 0 0 0 0 0 0 0 0 0 0 0 -0 -0 0 0 -0 0 0 0 0 0 0 0 -0 0
0 -0 -0 -0 -0 -0 -0 -0 -0 -0 -0 -0 -0 0 0 0 -0 -0 -0 0 0 0 0 0 0 0 0 0 0 0 0 0 0 0 -0 0 0 0 0 0 -0 -0 0 -0 -0 0 0
0 -0 -0 -0 -0 -0 -0 -0 -0 -0 -0 -0 -0 0 0 0 0 -0 0 -0 0 0 0 0 0 0 -0 0 0 -0 0 0 0 0 0 0 0 0 0 0 0 -0 0 0 0 0 0
0 -0 -0 -0 -0 -0 -0 -0 -0 -0 -0 -0 0 -0 0 0 -0 0 0 0 0 0 0 0 0 0 0 0 0 0 -0 0 0 0 0 0 0 -0 0 0 0 0 -0 0 -0 0 0
0 -0 0 -0 -0 -0 -0 -0 -0 -0 -0 -0 -0 0 0 -0 0 0 -0 0 0 0 0 0 0 0 0 0 0 0 -0 0 0 0 0 0 0 0 -0 0 -0 0 0 -0 0 0 0
-0 -0 -0 -0 -0 -0 -0 -0 -0 -0 -0 0 -0 0 0 -0 -0 0 0 0 0 0 0 0 0 0 0 0 0 0 0 0 0 0 0 0 0 0 0 0 0 0 -0 0 0 -0 0
-0 -0 0 0 0 -0 -0 -0 -0 -0 -0 0 -0 0 0 0 0 0 0 0 0 0 0 0 0 0 0 0 0 0 0 0 0 0 0 0 0 0 0 0 0 0 0 0 0 0 0
-0 -0 0 0 0 0 0 -0 -0 -0 -0 0 0 0 0 0 0 0 0 0 0 0 0 0 0 0 0 0 0 0 0 0 0 0 0 0 0 0 0 0 0 0 0 0 -0 -0 0
-0 -0 -0 0 0 0 0 0 -0 -0 -0 0 0 0 0 0 0 0 0 0 0 0 0 0 0 0 0 0 0 0 0 0 0 0 0 0 0 0 0 0 0 0 0 -0 -0 -0 0
-0 -0 -0 0 0 0 0 0 0 -0 -0 0 0 0 0 0 0 0 0 0 0 0 0 0 0 0 0 0 0 0 0 0 0 0 0 0 0 0 0 0 0 0 0 0 0 0 0
0 0 0 0 0 0 0 0 0 0 0 0 0 0 0 0 0 0 0 0 0 0 0 0 0 0 0 0 0 0 0 0 0 0 0 0 0 0 0 0 0 0 0 0 0 0 0
0 0 0 0 0 0 0 0 0 0 0 0 0 0 0 0 0 0 0 0 0 0 0 0 0 0 0 0 0 0 0 0 0 0 0 0 0 1 0 0 0 0 0 0 0 0 0
0 0 0 0 0 0 0 0 0 0 0 0 0 0 0 0 0 0 0 0 0 0 0 0 0 0 0 0 0 0 0 0 0 0 0 0 0 1 1 0 0 0 0 0 -0 0 0
0 0 0 0 0 0 0 0 0 0 0 0 0 0 0 0 0 0 0 0 0 0 0 0 0 0 0 0 0 0 0 0 0 0 0 0 0 1 0 1 0 0 0 0 0 0 0
0 0 0 0 0 0 0 0 0 0 0 0 0 0 0 0 0 0 0 0 0 0 0 0 0 0 0 0 0 0 -0 0 0 0 0 0 0 1 0 0 1 1 0 0 0 1 0
0 0 0 0 0 0 0 0 0 0 0 0 0 0 0 0 0 -0 -0 0 0 0 0 0 0 0 0 0 0 0 0 0 0 0 0 0 0 0 2 0 0 0 0 0 1 1 0
Wind_Speed_500mb
23 21 20 19 19 18 17 17 16 15 14 14 13 13 13 13 13 13 13 10 8 5 4 5 7 12 14 18 24 7 21 26 29 25 22 21 22 23 22 15 10 2 15 9 9 6 9
27 24 21 19 18 18 17 17 18 17 17 16 16 15 15 15 14 14 14 13 11 8 6 7 8 10 14 33 8 7 17 28 28 27 23 21 19 16 22 9 14 5 6 10 7 7 11
28 25 24 21 19 18 18 18 18 18 19 18 18 18 18 17 16 15 15 14 12 10 8 8 8 8 20 29 10 12 21 29 30 26 27 20 17 21 16 3 5 9 19 16 11 7 8
32 25 21 20 20 21 19 20 20 20 20 20 20 21 20 18 17 17 16 14 12 11 10 9 9 9 25 27 19 18 21 26 26 26 22 12 19 25 20 5 20 19 12 10 15 11 10
34 30 24 21 21 21 22 22 22 22 22 22 22 22 22 21 19 19 16 11 11 12 13 12 7 12 27 24 33 30 27 27 25 24 20 15 21 32 18 26 32 15 15 9 16 15 6
32 31 28 25 23 22 23 23 24 24 24 24 23 23 23 21 19 18 8 6 7 11 14 12 17 17 32 30 32 38 33 24 27 24 25 25 30 29 26 27 8 18 18 12 8 18 12
32 30 28 27 26 25 25 25 25 25 25 24 24 23 22 21 17 13 2 1 5 11 28 33 12 24 4 7 33 36 39 31 31 26 32 37 29 30 31 28 19 16 21 6 10 9 11
32 30 29 28 27 27 27 27 28 28 28 28 26 25 22 20 16 12 7 13 11 11 19 42 39 28 11 20 28 38 41 39 38 30 36 31 32 34 32 18 16 23 25 15 6 9 15
31 29 28 28 28 29 29 30 30 31 31 30 29 26 22 19 15 15 16 18 10 15 18 27 41 43 35 26 37 42 45 46 31 30 32 35 29 27 36 17 27 28 28 14 12 18 25
32 31 30 30 30 30 31 32 33 33 34 33 32 29 20 14 3 8 14 14 9 12 12 27 25 26 44 30 38 35 46 43 32 34 30 31 33 29 22 25 31 33 11 9 23 25 5
34 33 32 32 33 33 34 36 36 36 37 38 36 30 18 13 12 12 7 8 7 6 12 18 22 14 30 41 2 51 33 44 38 32 22 30 27 35 31 30 34 31 10 16 22 26 33
35 34 33 33 33 34 35 36 37 40 41 41 38 29 17 12 19 16 10 8 4 14 11 17 17 21 27 51 33 24 42 41 31 33 29 37 24 20 30 31 31 16 16 24 27 25 22
35 34 34 34 35 37 39 41 42 43 42 41 35 15 7 16 3 16 13 14 14 19 10 13 14 22 29 34 46 27 29 37 32 24 30 32 38 34 25 32 36 32 30 26 23 22 16
35 36 37 38 40 42 45 46 44 44 44 39 19 10 6 15 11 14 15 19 18 6 6 7 8 9 24 30 37 33 30 35 40 36 29 25 31 44 33 39 31 26 38 29 16 17 8
37 39 40 41 42 44 46 49 46 43 43 31 5 12 7 7 16 17 25 20 15 11 12 13 16 21 27 27 29 35 35 35 38 39 36 25 23 13 31 36 40 36 32 38 36 31 23
38 39 41 42 44 46 49 51 50 43 40 19 4 7 8 1 16 17 18 30 9 12 14 21 27 2 26 27 31 32 36 29 37 38 34 37 25 10 21 32 42 42 26 22 23 24 23
38 39 41 42 43 47 50 52 52 44 35 9 1 13 4 3 12 22 17 17 5 4 17 17 23 19 21 29 18 31 35 30 25 28 35 35 33 30 19 30 37 33 36 30 37 25 18
38 41 43 42 44 48 51 52 51 47 33 13 8 5 3 11 23 17 18 7 8 23 11 19 15 27 27 29 25 29 39 25 19 11 27 29 33 32 43 29 36 43 43 41 24 29 20
37 41 42 42 45 48 51 51 48 44 38 14 16 6 3 10 12 11 4 20 11 18 18 11 16 13 23 19 29 30 38 32 6 13 11 25 29 30 40 32 27 41 48 45 42 38 35
37 40 41 42 45 49 50 49 46 39 31 14 14 6 12 10 11 17 13 19 13 12 21 20 22 26 23 29 28 26 34 20 21 16 22 26 36 28 31 35 30 43 38 38 41 29 30
36 38 39 41 45 48 50 48 44 35 27 18 11 10 10 6 9 18 15 23 20 19 14 12 20 25 26 26 31 31 22 36 44 19 28 33 40 40 45 49 42 36 39 46 45 41 34
34 35 37 39 43 45 47 48 45 38 29 20 16 13 16 17 11 15 10 16 12 23 17 25 31 20 7 27 32 39 23 24 24 30 23 25 34 39 45 52 40 41 42 51 49 44 35
32 32 34 36 40 42 44 44 44 41 33 21 20 12 14 4 12 14 9 15 18 19 22 21 22 27 26 28 27 39 50 37 38 36 32 32 31 34 44 44 45 42 45 35 36 33 31
31 31 31 32 35 39 40 41 40 39 36 23 21 16 18 11 6 13 16 22 23 26 29 38 36 30 37 43 46 48 56 61 61 52 56 37 36 29 33 37 50 41 40 41 43 39 34
29 29 28 29 31 33 36 38 36 34 31 22 21 15 14 15 24 19 11 22 27 31 35 37 36 32 32 30 27 34 30 40 48 52 51 40 27 29 32 33 42 46 49 19 35 26 25
28 29 26 26 28 30 33 34 34 32 27 19 19 15 15 18 14 18 24 26 23 22 25 30 15 20 30 25 24 37 31 35 29 42 51 49 35 26 32 41 55 39 49 52 42 21 11
27 28 26 25 25 26 29 30 30 29 25 20 13 20 13 23 17 16 25 20 25 28 19 30 23 25 28 20 25 30 33 38 36 41 27 31 37 33 37 30 35 31 7 22 34 18 18
25 26 25 24 25 26 27 29 31 29 25 17 12 19 16 20 46 29 25 32 33 31 20 25 25 11 19 23 24 28 30 32 34 39 42 27 8 14 35 32 39 42 16 34 7 26 26
26 24 24 23 25 26 26 27 29 31 25 19 10 22 22 21 33 42 41 32 32 35 31 13 20 20 9 11 13 12 14 25 32 27 27 30 16 10 12 21 29 13 27 9 23 33 15
Wind_Direction_500mb
10 7 4 4 4 2 359 355 355 353 350 347 347 343 332 322 313 307 302 298 297 296 257 229 221 214 207 233 253 253 188 197 195 198 227 236 257 276 287 357 312 80 26 14 42 161 159
8 3 358 356 353 354 350 346 343 342 340 338 338 336 332 328 319 306 296 287 277 277 255 227 223 217 217 245 204 203 206 201 193 206 229 243 266 337 294 342 83 291 18 14 105 139 159
357 358 358 355 350 344 342 340 335 331 328 328 330 328 324 323 319 309 296 280 264 261 247 229 229 241 246 234 214 216 195 200 200 213 233 239 264 267 331 64 16 294 264 179 116 138 186
5 359 355 356 354 349 347 342 339 333 326 325 324 321 316 317 318 310 297 277 256 247 232 222 220 231 248 221 226 203 187 191 203 212 235 264 241 265 268 268 228 235 267 122 118 152 157
10 13 8 2 357 355 350 347 341 336 332 329 326 320 313 314 318 315 301 273 248 235 224 217 211 217 245 227 217 202 195 197 200 212 225 236 243 251 236 250 237 254 187 55 141 162 150
11 11 11 9 4 356 350 346 343 340 334 331 327 324 317 312 315 322 303 266 241 228 216 219 236 231 230 227 205 200 200 207 199 211 218 226 232 242 233 252 200 234 324 45 67 146 211
12 14 13 11 10 6 2 357 353 347 342 337 329 325 321 311 308 319 239 8 233 221 212 221 239 226 155 198 181 195 195 202 213 218 225 214 237 238 244 236 282 329 280 298 73 91 254
17 17 18 19 18 12 7 2 357 351 345 339 333 326 322 309 291 284 230 221 329 335 283 230 237 233 222 189 190 200 196 208 217 228 220 242 225 250 254 270 291 267 272 262 161 196 245
19 18 18 16 12 6 1 357 353 349 342 337 331 324 322 310 289 258 219 243 265 323 260 251 218 221 212 214 219 193 196 209 223 230 239 235 233 214 246 242 237 243 262 279 314 284 240
16 14 11 8 5 0 355 351 348 344 339 334 328 321 320 318 317 213 247 235 247 302 270 168 196 225 207 205 232 210 200 216 225 244 239 243 245 246 250 248 243 252 13 353 287 271 245
11 9 7 4 0 355 352 348 345 342 337 332 325 318 305 256 223 208 177 193 265 241 268 141 131 136 191 199 257 201 202 213 239 226 246 241 235 241 234 247 223 256 64 273 280 276 277
9 7 4 1 356 353 350 347 344 341 337 332 326 318 293 250 227 193 225 226 249 232 251 147 145 192 205 204 225 157 199 221 231 253 243 255 253 242 252 226 250 230 268 245 247 255 266
8 7 5 3 0 358 354 350 346 341 338 334 331 332 288 184 161 207 209 202 228 246 96 159 205 180 206 201 219 170 207 205 220 221 234 222 242 238 220 249 224 223 236 239 228 232 314
12 11 9 7 3 357 353 351 350 344 341 340 340 352 9 197 221 190 189 220 255 349 320 75 274 229 237 217 209 196 215 219 215 236 272 225 217 213 220 233 217 219 235 252 272 269 340
12 10 8 6 2 357 355 353 353 349 344 345 20 25 355 291 203 185 211 224 251 337 27 313 283 246 224 231 218 207 217 221 223 217 252 278 240 233 209 213 245 211 216 258 287 285 264
8 7 5 4 1 359 358 356 355 356 350 354 125 207 9 30 168 180 236 252 318 331 319 286 278 261 280 194 213 241 218 227 239 226 225 258 265 196 199 214 220 243 250 226 234 264 278
4 3 2 2 1 0 360 359 357 359 358 21 159 226 37 158 163 213 238 243 297 240 309 292 288 282 272 289 281 226 244 240 226 249 214 237 257 269 193 208 226 209 240 253 275 266 301
1 1 1 1 1 2 1 0 359 359 11 23 290 263 133 160 229 228 264 337 26 277 258 270 276 281 289 298 290 271 266 263 17 254 269 231 241 246 254 218 220 243 218 231 240 237 264
360 360 1 1 1 2 3 2 2 2 6 14 315 8 178 225 272 208 126 264 272 281 264 284 274 284 288 285 280 269 275 278 318 261 273 277 242 251 256 239 212 217 238 230 229 246 262
358 359 1 2 3 3 4 6 6 6 7 27 304 249 153 237 302 298 321 276 268 177 292 283 292 300 275 267 258 256 275 272 264 257 343 300 271 241 251 250 222 203 227 247 255 253 252
356 358 2 4 4 5 6 9 12 14 25 27 354 47 349 333 71 332 309 304 290 280 214 289 282 266 281 305 296 271 271 263 261 247 263 253 256 264 263 266 264 260 203 224 236 245 264
354 356 360 5 5 7 9 11 17 24 44 37 1 341 337 285 295 278 222 277 321 307 334 288 290 268 258 285 286 288 294 298 315 306 245 273 274 262 258 264 263 255 259 209 221 232 245
352 353 356 2 6 7 10 12 16 23 46 33 8 336 297 244 307 279 21 345 315 319 291 268 304 298 281 283 324 305 302 284 270 279 284 289 281 266 247 251 255 256 244 241 253 246 232
349 349 351 357 5 7 8 11 13 20 33 40 2 339 303 305 282 339 331 306 295 299 299 295 296 286 283 295 297 288 267 262 262 256 253 247 255 262 260 251 250 248 269 244 246 246 236
343 344 345 352 359 4 7 8 10 13 23 50 0 14 332 302 330 283 306 308 295 285 265 266 276 286 295 289 277 274 257 246 252 258 248 238 244 264 248 248 246 254 241 234 247 253 270
335 339 339 345 352 356 0 5 6 6 12 47 351 7 320 303 61 324 298 297 284 288 290 277 286 290 288 268 266 262 259 268 265 244 224 244 220 232 259 236 247 235 243 243 226 241 328
328 334 333 337 341 346 352 357 1 0 4 17 341 2 332 296 287 319 304 319 310 293 287 297 335 303 274 251 253 257 259 249 251 264 252 239 214 190 236 252 255 285 182 127 262 200 88
319 326 327 328 330 335 342 347 350 360 1 14 320 345 358 297 292 285 286 286 292 276 279 301 315 317 269 261 260 262 260 259 253 255 267 272 139 238 219 220 243 34 4 258 29 104 103
311 314 318 321 323 325 330 335 340 347 360 353 333 317 315 279 274 293 284 273 264 268 278 257 276 303 314 301 7 313 297 296 293 273 256 266 155 185 289 215 254 302 219 330 74 323 73
Wind_Speed_850mb
23 21 20 19 19 18 17 17 16 15 14 14 13 13 13 13 13 13 13 10 8 5 4 5 7 12 14 18 24 7 21 26 29 25 22 21 22 23 22 15 10 2 15 9 9 6 9
27 24 21 19 18 18 17 17 18 17 17 16 16 15 15 15 14 14 14 13 11 8 6 7 8 10 14 33 8 7 17 28 28 27 23 21 19 16 22 9 14 5 6 10 7 7 11
28 25 24 21 19 18 18 18 18 18 19 18 18 18 18 17 16 15 15 14 12 10 8 8 8 8 20 29 10 12 21 29 30 26 27 20 17 21 16 3 5 9 19 16 11 7 8
32 25 21 20 20 21 19 20 20 20 20 20 20 21 20 18 17 17 16 14 12 11 10 9 9 9 25 27 19 18 21 26 26 26 22 12 19 25 20 5 20 19 12 10 15 11 10
34 30 24 21 21 21 22 22 22 22 22 22 22 22 22 21 19 19 16 11 11 12 13 12 7 12 27 24 33 30 27 27 25 24 20 15 21 32 18 26 32 15 15 9 16 15 6
32 31 28 25 23 22 23 23 24 24 24 24 23 23 23 21 19 18 8 6 7 11 14 12 17 17 32 30 32 38 33 24 27 24 25 25 30 29 26 27 8 18 18 12 8 18 12
32 30 28 27 26 25 25 25 25 25 25 24 24 23 22 21 17 13 2 1 5 11 28 33 12 24 4 7 33 36 39 31 31 26 32 37 29 30 31 28 19 16 21 6 10 9 11
32 30 29 28 27 27 27 27 28 28 28 28 26 25 22 20 16 12 7 13 11 11 19 42 39 28 11 20 28 38 41 39 38 30 36 31 32 34 32 18 16 23 25 15 6 9 15
31 29 28 28 28 29 29 30 30 31 31 30 29 26 22 19 15 15 16 18 10 15 18 27 41 43 35 26 37 42 45 46 31 30 32 35 29 27 36 17 27 28 28 14 12 18 25
32 31 30 30 30 30 31 32 33 33 34 33 32 29 20 14 3 8 14 14 9 12 12 27 25 26 44 30 38 35 46 43 32 34 30 31 33 29 22 25 31 33 11 9 23 25 5
34 33 32 32 33 33 34 36 36 36 37 38 36 30 18 13 12 12 7 8 7 6 12 18 22 14 30 41 2 51 33 44 38 32 22 30 27 35 31 30 34 31 10 16 22 26 33
35 34 33 33 33 34 35 36 37 40 41 41 38 29 17 12 19 16 10 8 4 14 11 17 17 21 27 51 33 24 42 41 31 33 29 37 24 20 30 31 31 16 16 24 27 25 22
35 34 34 34 35 37 39 41 42 43 42 41 35 15 7 16 3 16 13 14 14 19 10 13 14 22 29 34 46 27 29 37 32 24 30 32 38 34 25 32 36 32 30 26 23 22 16
35 36 37 38 40 42 45 46 44 44 44 39 19 10 6 15 11 14 15 19 18 6 6 7 8 9 24 30 37 33 30 35 40 36 29 25 31 44 33 39 31 26 38 29 16 17 8
37 39 40 41 42 44 46 49 46 43 43 31 5 12 7 7 16 17 25 20 15 11 12 13 16 21 27 27 29 35 35 35 38 39 36 25 23 13 31 36 40 36 32 38 36 31 23
38 39 41 42 44 46 49 51 50 43 40 19 4 7 8 1 16 17 18 30 9 12 14 21 27 2 26 27 31 32 36 29 37 38 34 37 25 10 21 32 42 42 26 22 23 24 23
38 39 41 42 43 47 50 52 52 44 35 9 1 13 4 3 12 22 17 17 5 4 17 17 23 19 21 29 18 31 35 30 25 28 35 35 33 30 19 30 37 33 36 30 37 25 18
38 41 43 42 44 48 51 52 51 47 33 13 8 5 3 11 23 17 18 7 8 23 11 19 15 27 27 29 25 29 39 25 19 11 27 29 33 32 43 29 36 43 43 41 24 29 20
37 41 42 42 45 48 51 51 48 44 38 14 16 6 3 10 12 11 4 20 11 18 18 11 16 13 23 19 29 30 38 32 6 13 11 25 29 30 40 32 27 41 48 45 42 38 35
37 40 41 42 45 49 50 49 46 39 31 14 14 6 12 10 11 17 13 19 13 12 21 20 22 26 23 29 28 26 34 20 21 16 22 26 36 28 31 35 30 43 38 38 41 29 30
36 38 39 41 45 48 50 48 44 35 27 18 11 10 10 6 9 18 15 23 20 19 14 12 20 25 26 26 31 31 22 36 44 19 28 33 40 40 45 49 42 36 39 46 45 41 34
34 35 37 39 43 45 47 48 45 38 29 20 16 13 16 17 11 15 10 16 12 23 17 25 31 20 7 27 32 39 23 24 24 30 23 25 34 39 45 52 40 41 42 51 49 44 35
32 32 34 36 40 42 44 44 44 41 33 21 20 12 14 4 12 14 9 15 18 19 22 21 22 27 26 28 27 39 50 37 38 36 32 32 31 34 44 44 45 42 45 35 36 33 31
31 31 31 32 35 39 40 41 40 39 36 23 21 16 18 11 6 13 16 22 23 26 29 38 36 30 37 43 46 48 56 61 61 52 56 37 36 29 33 37 50 41 40 41 43 39 34
29 29 28 29 31 33 36 38 36 34 31 22 21 15 14 15 24 19 11 22 27 31 35 37 36 32 32 30 27 34 30 40 48 52 51 40 27 29 32 33 42 46 49 19 35 26 25
28 29 26 26 28 30 33 34 34 32 27 19 19 15 15 18 14 18 24 26 23 22 25 30 15 20 30 25 24 37 31 35 29 42 51 49 35 26 32 41 55 39 49 52 42 21 11
27 28 26 25 25 26 29 30 30 29 25 20 13 20 13 23 17 16 25 20 25 28 19 30 23 25 28 20 25 30 33 38 36 41 27 31 37 33 37 30 35 31 7 22 34 18 18
25 26 25 24 25 26 27 29 31 29 25 17 12 19 16 20 46 29 25 32 33 31 20 25 25 11 19 23 24 28 30 32 34 39 42 27 8 14 35 32 39 42 16 34 7 26 26
26 24 24 23 25 26 26 27 29 31 25 19 10 22 22 21 33 42 41 32 32 35 31 13 20 20 9 11 13 12 14 25 32 27 27 30 16 10 12 21 29 13 27 9 23 33 15
Wind_Direction_850mb
10 7 4 4 4 2 359 355 355 353 350 347 347 343 332 322 313 307 302 298 297 296 257 229 221 214 207 233 253 253 188 197 195 198 227 236 257 276 287 357 312 80 26 14 42 161 159
8 3 358 356 353 354 350 346 343 342 340 338 338 336 332 328 319 306 296 287 277 277 255 227 223 217 217 245 204 203 206 201 193 206 229 243 266 337 294 342 83 291 18 14 105 139 159
357 358 358 355 350 344 342 340 335 331 328 328 330 328 324 323 319 309 296 280 264 261 247 229 229 241 246 234 214 216 195 200 200 213 233 239 264 267 331 64 16 294 264 179 116 138 186
5 359 355 356 354 349 347 342 339 333 326 325 324 321 316 317 318 310 297 277 256 247 232 222 220 231 248 221 226 203 187 191 203 212 235 264 241 265 268 268 228 235 267 122 118 152 157
10 13 8 2 357 355 350 347 341 336 332 329 326 320 313 314 318 315 301 273 248 235 224 217 211 217 245 227 217 202 195 197 200 212 225 236 243 251 236 250 237 254 187 55 141 162 150
11 11 11 9 4 356 350 346 343 340 334 331 327 324 317 312 315 322 303 266 241 228 216 219 236 231 230 227 205 200 200 207 199 211 218 226 232 242 233 252 200 234 324 45 67 146 211
12 14 13 11 10 6 2 357 353 347 342 337 329 325 321 311 308 319 239 8 233 221 212 221 239 226 155 198 181 195 195 202 213 218 225 214 237 238 244 236 282 329 280 298 73 91 254
17 17 18 19 18 12 7 2 357 351 345 339 333 326 322 309 291 284 230 221 329 335 283 230 237 233 222 189 190 200 196 208 217 228 220 242 225 250 254 270 291 267 272 262 161 196 245
19 18 18 16 12 6 1 357 353 349 342 337 331 324 322 310 289 258 219 243 265 323 260 251 218 221 212 214 219 193 196 209 223 230 239 235 233 214 246 242 237 243 262 279 314 284 240
16 14 11 8 5 0 355 351 348 344 339 334 328 321 320 318 317 213 247 235 247 302 270 168 196 225 207 205 232 210 200 216 225 244 239 243 245 246 250 248 243 252 13 353 287 271 245
11 9 7 4 0 355 352 348 345 342 337 332 325 318 305 256 223 208 177 193 265 241 268 141 131 136 191 199 257 201 202 213 239 226 246 241 235 241 234 247 223 256 64 273 280 276 277
9 7 4 1 356 353 350 347 344 341 337 332 326 318 293 250 227 193 225 226 249 232 251 147 145 192 205 204 225 157 199 221 231 253 243 255 253 242 252 226 250 230 268 245 247 255 266
8 7 5 3 0 358 354 350 346 341 338 334 331 332 288 184 161 207 209 202 228 246 96 159 205 180 206 201 219 170 207 205 220 221 234 222 242 238 220 249 224 223 236 239 228 232 314
12 11 9 7 3 357 353 351 350 344 341 340 340 352 9 197 221 190 189 220 255 349 320 75 274 229 237 217 209 196 215 219 215 236 272 225 217 213 220 233 217 219 235 252 272 269 340
12 10 8 6 2 357 355 353 353 349 344 345 20 25 355 291 203 185 211 224 251 337 27 313 283 246 224 231 218 207 217 221 223 217 252 278 240 233 209 213 245 211 216 258 287 285 264
8 7 5 4 1 359 358 356 355 356 350 354 125 207 9 30 168 180 236 252 318 331 319 286 278 261 280 194 213 241 218 227 239 226 225 258 265 196 199 214 220 243 250 226 234 264 278
4 3 2 2 1 0 360 359 357 359 358 21 159 226 37 158 163 213 238 243 297 240 309 292 288 282 272 289 281 226 244 240 226 249 214 237 257 269 193 208 226 209 240 253 275 266 301
1 1 1 1 1 2 1 0 359 359 11 23 290 263 133 160 229 228 264 337 26 277 258 270 276 281 289 298 290 271 266 263 17 254 269 231 241 246 254 218 220 243 218 231 240 237 264
360 360 1 1 1 2 3 2 2 2 6 14 315 8 178 225 272 208 126 264 272 281 264 284 274 284 288 285 280 269 275 278 318 261 273 277 242 251 256 239 212 217 238 230 229 246 262
358 359 1 2 3 3 4 6 6 6 7 27 304 249 153 237 302 298 321 276 268 177 292 283 292 300 275 267 258 256 275 272 264 257 343 300 271 241 251 250 222 203 227 247 255 253 252
356 358 2 4 4 5 6 9 12 14 25 27 354 47 349 333 71 332 309 304 290 280 214 289 282 266 281 305 296 271 271 263 261 247 263 253 256 264 263 266 264 260 203 224 236 245 264
354 356 360 5 5 7 9 11 17 24 44 37 1 341 337 285 295 278 222 277 321 307 334 288 290 268 258 285 286 288 294 298 315 306 245 273 274 262 258 264 263 255 259 209 221 232 245
352 353 356 2 6 7 10 12 16 23 46 33 8 336 297 244 307 279 21 345 315 319 291 268 304 298 281 283 324 305 302 284 270 279 284 289 281 266 247 251 255 256 244 241 253 246 232
349 349 351 357 5 7 8 11 13 20 33 40 2 339 303 305 282 339 331 306 295 299 299 295 296 286 283 295 297 288 267 262 262 256 253 247 255 262 260 251 250 248 269 244 246 246 236
343 344 345 352 359 4 7 8 10 13 23 50 0 14 332 302 330 283 306 308 295 285 265 266 276 286 295 289 277 274 257 246 252 258 248 238 244 264 248 248 246 254 241 234 247 253 270
335 339 339 345 352 356 0 5 6 6 12 47 351 7 320 303 61 324 298 297 284 288 290 277 286 290 288 268 266 262 259 268 265 244 224 244 220 232 259 236 247 235 243 243 226 241 328
328 334 333 337 341 346 352 357 1 0 4 17 341 2 332 296 287 319 304 319 310 293 287 297 335 303 274 251 253 257 259 249 251 264 252 239 214 190 236 252 255 285 182 127 262 200 88
319 326 327 328 330 335 342 347 350 360 1 14 320 345 358 297 292 285 286 286 292 276 279 301 315 317 269 261 260 262 260 259 253 255 267 272 139 238 219 220 243 34 4 258 29 104 103
311 314 318 321 323 325 330 335 340 347 360 353 333 317 315 279 274 293 284 273 264 268 278 257 276 303 314 301 7 313 297 296 293 273 256 266 155 185 289 215 254 302 219 330 74 323 73